Location: Amherst
(42.5000°N, 72.5000°W)
Time: 06:12:31
(UTC-04:00)

ISS - Pass Details

Date: 20 May 2018
Orbit: 402 x 407 km, 51.6° (Epoch: 26 May)

Event Time Altitude Azimuth Distance (km) Brightness Sun altitude
Exits shadow 00:16:20 21° 360° (N) 974 -1.2 -27.1°
Drops below altitude 10° 00:18:25 10° 38° (NE) 1,458 -0.5 -27.2°
Sets 00:20:49 0° 54° (NE) 2,319 0.4 -27.3°
